Time,TemperatureF,DewpointF,PressureIn,WindDirection,WindDirectionDegrees,WindSpeedMPH,WindSpeedGustMPH,Humidity,HourlyPrecipIn,Conditions,Clouds,dailyrainin,SoftwareType,DateUTC
2013-09-08 00:13:00,73.0,69.0,29.86,SE,144,0.0,-999.0,87,-99.99,,,-99.99,,2013-09-08 05:13:00,
2013-09-08 00:23:00,73.0,69.0,29.87,SE,144,0.0,-999.0,87,-99.99,,,-99.99,,2013-09-08 05:23:00,
2013-09-08 00:52:00,74.0,68.0,29.87,SE,144,0.0,-999.0,83,-99.99,,,-99.99,,2013-09-08 05:52:00,
2013-09-08 01:13:00,74.0,68.0,29.87,SE,144,0.0,-999.0,83,-99.99,,,-99.99,,2013-09-08 06:13:00,
2013-09-08 01:21:00,73.0,68.0,29.87,SE,144,0.0,-999.0,85,-99.99,,,-99.99,,2013-09-08 06:21:00,
2013-09-08 01:53:00,73.0,68.0,29.87,SE,144,0.0,-999.0,84,-99.99,,,-99.99,,2013-09-08 06:53:00,
2013-09-08 02:12:00,72.0,69.0,29.86,SE,144,0.0,-999.0,89,-99.99,,,-99.99,,2013-09-08 07:12:00,
2013-09-08 02:23:00,71.0,69.0,29.86,NE,53,0.0,-999.0,92,-99.99,,,-99.99,,2013-09-08 07:23:00,
2013-09-08 02:42:00,71.0,69.0,29.86,NE,53,0.0,-999.0,92,-99.99,,,-99.99,,2013-09-08 07:42:00,
2013-09-08 02:52:00,70.0,68.0,29.86,NE,53,0.0,-999.0,92,-99.99,,,-99.99,,2013-09-08 07:52:00,
2013-09-08 03:11:00,70.0,68.0,29.87,NE,53,0.0,-999.0,93,-99.99,,,-99.99,,2013-09-08 08:11:00,
2013-09-08 03:22:00,70.0,68.0,29.87,NE,53,0.0,-999.0,94,-99.99,,,-99.99,,2013-09-08 08:22:00,
2013-09-08 03:52:00,70.0,68.0,29.87,NE,53,0.0,-999.0,95,-99.99,,,-99.99,,2013-09-08 08:52:00,
2013-09-08 04:11:00,70.0,68.0,29.86,NE,53,0.0,-999.0,95,-99.99,,,-99.99,,2013-09-08 09:11:00,
2013-09-08 04:22:00,70.0,68.0,29.87,ESE,117,0.0,-999.0,94,-99.99,,,-99.99,,2013-09-08 09:22:00,
2013-09-08 04:54:00,70.0,67.0,29.87,ESE,108,1.0,-999.0,90,-99.99,,,-99.99,,2013-09-08 09:54:00,
2013-09-08 05:12:00,70.0,67.0,29.88,ENE,62,1.0,-999.0,89,-99.99,,,-99.99,,2013-09-08 10:12:00,
2013-09-08 05:23:00,70.0,67.0,29.90,ENE,78,0.0,-999.0,90,-99.99,,,-99.99,,2013-09-08 10:23:00,
2013-09-08 05:42:00,70.0,67.0,29.90,East,79,0.0,-999.0,90,-99.99,,,-99.99,,2013-09-08 10:42:00,
2013-09-08 05:53:00,71.0,68.0,29.90,ENE,66,1.0,-999.0,90,-99.99,,,-99.99,,2013-09-08 10:53:00,
2013-09-08 06:12:00,70.0,67.0,29.90,ENE,57,1.0,-999.0,90,-99.99,,,-99.99,,2013-09-08 11:12:00,
2013-09-08 06:21:00,70.0,67.0,29.90,ENE,68,1.0,-999.0,91,-99.99,,,-99.99,,2013-09-08 11:21:00,
2013-09-08 06:42:00,69.0,67.0,29.91,ENE,57,1.0,-999.0,92,-99.99,,,-99.99,,2013-09-08 11:42:00,
2013-09-08 06:52:00,69.0,67.0,29.92,ENE,59,0.0,-999.0,93,-99.99,,,-99.99,,2013-09-08 11:52:00,
2013-09-08 07:12:00,69.0,67.0,29.92,ENE,67,0.0,-999.0,94,-99.99,,,-99.99,,2013-09-08 12:12:00,
2013-09-08 07:22:00,69.0,68.0,29.92,East,82,1.0,-999.0,95,-99.99,,,-99.99,,2013-09-08 12:22:00,
2013-09-08 07:42:00,69.0,67.0,29.92,ENE,65,2.0,-999.0,94,-99.99,,,-99.99,,2013-09-08 12:42:00,
2013-09-08 07:52:00,69.0,67.0,29.93,ENE,68,1.0,-999.0,94,-99.99,,,-99.99,,2013-09-08 12:52:00,
2013-09-08 08:12:00,70.0,68.0,29.93,NE,43,3.0,-999.0,94,-99.99,,,-99.99,,2013-09-08 13:12:00,
2013-09-08 08:22:00,70.0,68.0,29.93,ENE,65,1.0,-999.0,93,-99.99,,,-99.99,,2013-09-08 13:22:00,
2013-09-08 08:42:00,70.0,68.0,29.94,NE,44,1.0,-999.0,92,-99.99,,,-99.99,,2013-09-08 13:42:00,
2013-09-08 08:52:00,70.0,68.0,29.94,NE,54,0.0,-999.0,92,-99.99,,,-99.99,,2013-09-08 13:52:00,
2013-09-08 09:11:00,71.0,68.0,29.94,ENE,69,2.0,-999.0,90,-99.99,,,-99.99,,2013-09-08 14:11:00,
2013-09-08 09:22:00,71.0,68.0,29.94,NE,44,1.0,-999.0,91,-99.99,,,-99.99,,2013-09-08 14:22:00,
2013-09-08 09:42:00,72.0,68.0,29.93,ENE,61,2.0,-999.0,88,-99.99,,,-99.99,,2013-09-08 14:42:00,
2013-09-08 09:52:00,72.0,68.0,29.95,NE,49,2.0,-999.0,88,-99.99,,,-99.99,,2013-09-08 14:52:00,
2013-09-08 10:12:00,72.0,68.0,29.95,ESE,116,2.0,-999.0,88,-99.99,,,-99.99,,2013-09-08 15:12:00,
2013-09-08 10:23:00,73.0,69.0,29.95,East,82,3.0,-999.0,87,-99.99,,,-99.99,,2013-09-08 15:23:00,
2013-09-08 10:45:00,74.0,69.0,29.95,ENE,73,1.0,-999.0,85,-99.99,,,-99.99,,2013-09-08 15:45:00,
2013-09-08 10:54:00,75.0,69.0,29.95,ENE,60,0.0,-999.0,82,-99.99,,,-99.99,,2013-09-08 15:54:00,
2013-09-08 11:14:00,76.0,71.0,29.94,NE,50,1.0,-999.0,84,-99.99,,,-99.99,,2013-09-08 16:14:00,
2013-09-08 11:23:00,77.0,71.0,29.94,ENE,57,0.0,-999.0,81,-99.99,,,-99.99,,2013-09-08 16:23:00,
2013-09-08 11:44:00,77.0,70.0,29.95,East,100,1.0,-999.0,79,-99.99,,,-99.99,,2013-09-08 16:44:00,
2013-09-08 11:53:00,77.0,70.0,29.95,East,86,1.0,-999.0,79,-99.99,,,-99.99,,2013-09-08 16:53:00,
2013-09-08 12:12:00,78.0,71.0,29.94,ENE,71,1.0,-999.0,78,-99.99,,,-99.99,,2013-09-08 17:12:00,
2013-09-08 12:23:00,79.0,71.0,29.94,ENE,57,1.0,-999.0,77,-99.99,,,-99.99,,2013-09-08 17:23:00,
2013-09-08 12:43:00,79.0,71.0,29.94,ENE,77,0.0,-999.0,76,-99.99,,,-99.99,,2013-09-08 17:43:00,
2013-09-08 12:53:00,80.0,71.0,29.94,SE,124,0.0,-999.0,75,-99.99,,,-99.99,,2013-09-08 17:53:00,
2013-09-08 13:13:00,80.0,71.0,29.93,ENE,65,0.0,-999.0,75,-99.99,,,-99.99,,2013-09-08 18:13:00,
2013-09-08 13:22:00,81.0,72.0,29.93,ENE,74,0.0,-999.0,75,-99.99,,,-99.99,,2013-09-08 18:22:00,
2013-09-08 13:42:00,81.0,72.0,29.93,NE,54,1.0,-999.0,73,-99.99,,,-99.99,,2013-09-08 18:42:00,
2013-09-08 13:52:00,81.0,72.0,29.92,NE,53,1.0,-999.0,73,-99.99,,,-99.99,,2013-09-08 18:52:00,
2013-09-08 14:12:00,82.0,72.0,29.92,ENE,57,2.0,-999.0,72,-99.99,,,-99.99,,2013-09-08 19:12:00,
2013-09-08 14:22:00,82.0,72.0,29.91,ENE,58,1.0,-999.0,72,-99.99,,,-99.99,,2013-09-08 19:22:00,
2013-09-08 14:42:00,82.0,72.0,29.91,East,93,2.0,-999.0,73,-99.99,,,-99.99,,2013-09-08 19:42:00,
2013-09-08 14:52:00,82.0,72.0,29.90,East,83,4.0,-999.0,72,-99.99,,,-99.99,,2013-09-08 19:52:00,
2013-09-08 15:11:00,82.0,72.0,29.89,NNE,28,3.0,-999.0,72,-99.99,,,-99.99,,2013-09-08 20:11:00,
2013-09-08 15:22:00,82.0,72.0,29.88,East,98,4.0,-999.0,72,-99.99,,,-99.99,,2013-09-08 20:22:00,
2013-09-08 15:42:00,82.0,72.0,29.88,East,96,3.0,-999.0,72,-99.99,,,-99.99,,2013-09-08 20:42:00,
2013-09-08 15:53:00,83.0,73.0,29.88,East,79,2.0,-999.0,72,-99.99,,,-99.99,,2013-09-08 20:53:00,
2013-09-08 16:12:00,83.0,72.0,29.88,NE,54,2.0,-999.0,70,-99.99,,,-99.99,,2013-09-08 21:12:00,
2013-09-08 16:22:00,83.0,73.0,29.87,ENE,78,1.0,-999.0,71,-99.99,,,-99.99,,2013-09-08 21:22:00,
2013-09-08 16:43:00,84.0,72.0,29.87,East,92,0.0,-999.0,68,-99.99,,,-99.99,,2013-09-08 21:43:00,
2013-09-08 16:54:00,84.0,72.0,29.87,NE,40,0.0,-999.0,67,-99.99,,,-99.99,,2013-09-08 21:54:00,
2013-09-08 17:13:00,84.0,72.0,29.86,ESE,115,0.0,-999.0,68,-99.99,,,-99.99,,2013-09-08 22:13:00,
2013-09-08 17:24:00,84.0,73.0,29.86,ENE,77,0.0,-999.0,69,-99.99,,,-99.99,,2013-09-08 22:24:00,
2013-09-08 17:43:00,83.0,72.0,29.86,East,80,0.0,-999.0,70,-99.99,,,-99.99,,2013-09-08 22:43:00,
2013-09-08 17:53:00,83.0,72.0,29.86,ENE,66,1.0,-999.0,70,-99.99,,,-99.99,,2013-09-08 22:53:00,
2013-09-08 18:12:00,82.0,72.0,29.86,ENE,68,0.0,-999.0,71,-99.99,,,-99.99,,2013-09-08 23:12:00,
2013-09-08 18:22:00,81.0,72.0,29.86,NE,54,0.0,-999.0,73,-99.99,,,-99.99,,2013-09-08 23:22:00,
2013-09-08 18:52:00,80.0,72.0,29.86,East,82,0.0,-999.0,78,-99.99,,,-99.99,,2013-09-08 23:52:00,
2013-09-08 19:11:00,79.0,72.0,29.87,ENE,59,1.0,-999.0,78,-99.99,,,-99.99,,2013-09-09 00:11:00,
2013-09-08 19:22:00,78.0,71.0,29.86,ENE,75,0.0,-999.0,80,-99.99,,,-99.99,,2013-09-09 00:22:00,
2013-09-08 19:42:00,77.0,71.0,29.86,NE,56,1.0,-999.0,81,-99.99,,,-99.99,,2013-09-09 00:42:00,
2013-09-08 19:52:00,76.0,70.0,29.86,ENE,60,0.0,-999.0,83,-99.99,,,-99.99,,2013-09-09 00:52:00,
2013-09-08 20:12:00,76.0,70.0,29.86,ENE,59,0.0,-999.0,83,-99.99,,,-99.99,,2013-09-09 01:12:00,
2013-09-08 20:21:00,75.0,70.0,29.87,ENE,65,0.0,-999.0,85,-99.99,,,-99.99,,2013-09-09 01:21:00,
2013-09-08 20:42:00,74.0,70.0,29.87,ENE,67,0.0,-999.0,86,-99.99,,,-99.99,,2013-09-09 01:42:00,
2013-09-08 20:52:00,74.0,70.0,29.87,ENE,70,0.0,-999.0,86,-99.99,,,-99.99,,2013-09-09 01:52:00,
2013-09-08 21:11:00,73.0,69.0,29.87,ENE,65,0.0,-999.0,87,-99.99,,,-99.99,,2013-09-09 02:11:00,
2013-09-08 21:22:00,73.0,69.0,29.88,NE,54,0.0,-999.0,87,-99.99,,,-99.99,,2013-09-09 02:22:00,
2013-09-08 21:42:00,72.0,68.0,29.87,NE,53,0.0,-999.0,88,-99.99,,,-99.99,,2013-09-09 02:42:00,
2013-09-08 21:52:00,72.0,69.0,29.87,NE,53,0.0,-999.0,89,-99.99,,,-99.99,,2013-09-09 02:52:00,
2013-09-08 22:12:00,72.0,69.0,29.87,NE,53,0.0,-999.0,89,-99.99,,,-99.99,,2013-09-09 03:12:00,
2013-09-08 22:22:00,71.0,68.0,29.87,NE,53,0.0,-999.0,90,-99.99,,,-99.99,,2013-09-09 03:22:00,
2013-09-08 22:44:00,71.0,68.0,29.88,NE,53,0.0,-999.0,90,-99.99,,,-99.99,,2013-09-09 03:44:00,
2013-09-08 22:55:00,70.0,67.0,29.88,NE,53,0.0,-999.0,91,-99.99,,,-99.99,,2013-09-09 03:55:00,
2013-09-08 23:14:00,70.0,68.0,29.88,NE,53,0.0,-999.0,92,-99.99,,,-99.99,,2013-09-09 04:14:00,
2013-09-08 23:24:00,70.0,68.0,29.88,ENE,61,0.0,-999.0,93,-99.99,,,-99.99,,2013-09-09 04:24:00,
2013-09-08 23:43:00,69.0,67.0,29.88,ENE,61,0.0,-999.0,93,-99.99,,,-99.99,,2013-09-09 04:43:00,
2013-09-08 23:54:00,69.0,67.0,29.88,ENE,61,0.0,-999.0,94,-99.99,,,-99.99,,2013-09-09 04:54:00,